Regional Weather Roundup
Issued by NWS Charleston, WV

Home | Current Version | Previous Version | Graphics & Text | Print | Product List | Glossary On
Versions: 1 2 3 4 5 6 7 8 9 10 11 12 13 14 15 16 17 18 19 20 21 22 23 24 25 26 27 28 29 30 31 32 33 34 35 36 37 38 39 40 41 42 43 44 45 46 47
000
ASUS41 KRLX 230110
RWRRLX
West Virginia Regional Weather Roundup
National Weather Service Charleston WV
Issued by National Weather Service Pittsburgh PA
800 PM EST WED NOV 22 2017

Note: "fair" indicates few or no clouds below 12,000 feet with no
significant weather and/or obstructions to visibility.

WVZ003-230200-
Northern Panhandle of West Virginia

CITY           SKY/WX    TMP DP  RH WIND       PRES   REMARKS
WHEELING       CLOUDY    31  19  61 NW7       30.24F WCI  24
$$

WVZ009-230200-
Northwest West Virginia

CITY           SKY/WX    TMP DP  RH WIND       PRES   REMARKS
PARKERSBURG    CLOUDY    35  22  58 NE6       30.28F WCI  30
$$

WVZ006-230200-
Western West Virginia

CITY           SKY/WX    TMP DP  RH WIND       PRES   REMARKS
HUNTINGTON     CLEAR     34  21  59 NE5       30.26R WCI  30
$$

WVZ015-230200-
West Central West Virginia

CITY           SKY/WX    TMP DP  RH WIND       PRES   REMARKS
CHARLESTON     CLOUDY    35  23  61 CALM      30.24R
$$

WVZ031-230200-
North Central West Virginia

CITY           SKY/WX    TMP DP  RH WIND       PRES   REMARKS
CLARKSBURG     CLOUDY    35  22  58 N7        30.23S WCI  29
MORGANTOWN     CLOUDY    33  21  61 N5        30.24S WCI  29
$$

WVZ035-042-230200-
South Central West Virginia

CITY           SKY/WX    TMP DP  RH WIND       PRES   REMARKS
BECKLEY        CLOUDY    31  22  69 N8        30.17R WCI  23
BLUEFIELD      CLEAR     29  21  72 N3        30.16R
$$

WVZ045-230200-
Greenbrier Valley of West Virginia

CITY           SKY/WX    TMP DP  RH WIND       PRES   REMARKS
LEWISBURG      CLOUDY    32  22  66 CALM      30.17R
$$

WVZ047-230200-
Northern Mountains of West Virginia

CITY           SKY/WX    TMP DP  RH WIND       PRES   REMARKS
ELKINS         CLOUDY    33  23  66 N7        30.18S WCI  27
$$

WVZ052-230200-
Eastern Panhandle of West Virginia

CITY           SKY/WX    TMP DP  RH WIND       PRES   REMARKS
MARTINSBURG    CLEAR     37  20  50 N12       30.17R
PETERSBURG     CLOUDY    35  22  58 N7        30.20R WCI  29
$$




USA.gov is the U.S. government's official web portal to all federal, state and local government web resources and services.